Preview of NWS' New Version of Forecast
This preview is not operational and should not be used for support decisions.

Regional Weather Roundup (RWR)

Issued by Philadelphia/Mt Holly (PHI)

                            
000
ASUS41 KPHI 182212
RWRPHI

REGIONAL WEATHER ROUNDUP
NATIONAL WEATHER SERVICE MOUNT HOLLY NJ
500 PM EST FRI JAN 18 2019

NOTE:  "FAIR" INDICATES FEW OR NO CLOUDS BELOW 12,000 FEET WITH NO
SIGNIFICANT WEATHER AND/OR OBSTRUCTIONS TO VISIBILITY.

 * = STATION DOES NOT REPORT PRECIPITATION (E.G. RAIN, SNOW, ETC.) 
        OR FOG.

NJZ015>026-182300-
SOUTHERN NEW JERSEY
  
CITY           SKY/WX    TMP DP  RH WIND       PRES   REMARKS
POMONA         CLOUDY    37  36  96 NW6       30.10R WCI  32          
WILDWOOD*      FAIR      38  35  89 NW3       30.11R                  
MILLVILLE      CLOUDY    38  33  82 W5        30.10R WCI  34          
WRIGHTSTOWN    CLOUDY    35  34  96 W7        30.06S FOG     WCI  30  
MOUNT HOLLY    CLOUDY    36  33  89 W3        30.10R FOG              
TRENTON        CLOUDY    35  32  88 SW5       30.08S FOG     WCI  31  

$$
NJZ001>014-182300-
NORTHERN NEW JERSEY
  
CITY           SKY/WX    TMP DP  RH WIND       PRES   REMARKS
SUSSEX           N/A     33  30  88 CALM      30.05S                  
ANDOVER*         N/A     31  28  89 CALM      30.05F                  
MORRISTOWN     CLOUDY    36  34  93 SW5       30.07F WCI  32          
NEWARK         CLOUDY    37  32  82 W10       30.07S WCI  30          
TETERBORO      CLOUDY    40  32  73 S8G17     30.06S WCI  34          
CALDWELL       CLOUDY    35  32  88 SW3       30.07F                  
SOMERVILLE     CLOUDY    35  31  85 CALM      30.06F                  
ALLAIRE*       CLOUDY    36  34  92 W6        30.09R WCI  31          
TOMS RIVER*    CLOUDY    36  34  92 W7        30.10R WCI  30          

$$
PAZ043-044-047-054-055-060>062-066>071-182300-
EASTERN PENNSYLVANIA
  
CITY           SKY/WX    TMP DP  RH WIND       PRES   REMARKS
PHILADELPHIA   CLOUDY    37  31  78 NW6       30.10F WCI  32          
NORTH PHILA    CLOUDY    37  31  78 W3        30.10S HAZE             
BLUE BELL*     CLOUDY    34  32  93 CALM      30.11R                  
DOYLESTOWN     MOCLDY    34  30  85 W5        30.08R WCI  30          
QUAKERTOWN*    MOCLDY    34  30  86 CALM      30.09                   
PERKASIE*      CLOUDY    32  32 100 CALM      30.09R FOG              
POTTSTOWN      CLOUDY    33  30  88 W3        30.11R FOG              
LANCASTER      FAIR      36  31  82 SW3       30.10R HAZE             
COATESVILLE    FAIR      32  30  93 W6        30.10R FOG     WCI  26  
READING        FAIR      34  31  88 CALM      30.09R FOG              
ALLENTOWN      FAIR      32  27  81 W3        30.08R                  
MOUNT POCONO   CLOUDY    29  27  92 W10       29.99R WCI  20          
HAZLETON       CLOUDY   N/A N/A N/A W5        30.06R HAZE             
LEHIGHTON      CLOUDY    34  30  86 CALM      30.08R                  
WILKES BARRE   CLOUDY    32  28  85 SW5       30.06R WCI  27          

$$
DEZALL-MDZ008-012-015-019-020-182300-
DELAWARE AND EASTERN MARYLAND
  
CITY           SKY/WX    TMP DP  RH WIND       PRES   REMARKS
WILMINGTON     FAIR      36  31  82 W6        30.11R WCI  31          
DOVER          MOCLDY    38  33  81 W7        30.11R WCI  33          
GEORGETOWN     MOCLDY    43  35  73 NW5       30.12R                  
EASTON         MOCLDY    39  36  87 CALM      30.16R                  
ABERDEEN       MOCLDY    36  34  93 CALM      30.12                   
PATUXENT       FAIR      38  38 100 NE9       30.11  WCI  31          
OCEAN CITY     MOCLDY    42  38  85 VRB3      30.10R                  
WALLOPS ISLAND FAIR      46  36  68 W8        30.10R                  
CAMBRIDGE      CLOUDY    37  36  93 VRB5      30.13R WCI  34          
SALISBURY      FAIR      43  36  76 N8        30.11R                  

$$
PAZ001-021-NYZ056-072-MDZ011-DCZ001-182300-
OTHER NEARBY LOCATIONS
  
CITY           SKY/WX    TMP DP  RH WIND       PRES   REMARKS
HARRISBURG     CLOUDY    36  30  79 CALM      30.09R HAZE             
STATE COLLEGE  CLOUDY    34  28  80 W8        30.08R FOG     WCI  27  
WILLIAMSPORT   CLOUDY    33  28  81 CALM      30.09R HAZE             
BINGHAMTON     FLURRIES  28  25  88 N7        30.01S WCI  21          
NEW YORK CITY  CLOUDY    38  31  76 MISG      30.09S                  
BALTIMORE      MOCLDY    43  35  73 NW5       30.09R                  
WASHINGTON DC  MOCLDY    39  34  82 S8        30.12S WCI  33          

$$